2023/07/26 00:00:00,78.9,20.9
2023/07/26 00:10:00,78.9,20.6
2023/07/26 00:20:00,78.9,20.5
2023/07/26 00:30:00,79.0,20.6
2023/07/26 00:40:00,79.0,20.4
2023/07/26 00:50:00,79.0,20.5
2023/07/26 01:00:00,79.0,20.4
2023/07/26 01:10:00,79.0,20.4
2023/07/26 01:20:00,79.0,20.4
2023/07/26 01:30:00,79.0,20.3
2023/07/26 01:40:00,79.0,20.4
2023/07/26 01:50:00,79.0,20.4
2023/07/26 02:00:00,79.0,20.3
2023/07/26 02:10:00,79.0,20.2
2023/07/26 02:20:00,79.0,20.1
2023/07/26 02:30:00,78.9,20.1
2023/07/26 02:40:00,78.9,20.2
2023/07/26 02:50:00,78.9,20.2
2023/07/26 03:00:00,79.0,20.2
2023/07/26 03:10:00,79.0,20.1
2023/07/26 03:20:00,79.0,20.2
2023/07/26 03:30:00,79.0,20.2
2023/07/26 03:40:00,79.0,20.1
2023/07/26 03:50:00,79.0,19.8
2023/07/26 04:00:00,79.0,19.8
2023/07/26 04:10:00,78.9,19.5
2023/07/26 04:20:00,79.0,20.4
2023/07/26 04:30:00,79.1,19.8
2023/07/26 04:40:00,79.1,19.9
2023/07/26 04:50:00,79.1,19.9
2023/07/26 05:00:00,79.1,19.6
2023/07/26 05:10:00,79.1,19.6
2023/07/26 05:20:00,79.1,19.8
2023/07/26 05:30:00,79.2,19.7
2023/07/26 05:40:00,79.2,19.7
2023/07/26 05:50:00,79.2,19.7
2023/07/26 06:00:00,79.3,19.7
2023/07/26 06:10:00,79.3,19.9
2023/07/26 06:20:00,79.3,20.3
2023/07/26 06:30:00,79.3,20.2
2023/07/26 06:40:00,79.5,20.4
2023/07/26 06:50:00,79.5,20.5
2023/07/26 07:00:00,79.6,20.7
2023/07/26 07:10:00,79.7,21.0
2023/07/26 07:20:00,79.7,21.1
2023/07/26 07:30:00,79.8,21.7
2023/07/26 07:40:00,80.3,25.3
2023/07/26 07:50:00,80.3,27.7
2023/07/26 08:00:00,80.4,28.2
2023/07/26 08:10:00,80.4,29.0
2023/07/26 08:20:00,80.7,29.0
2023/07/26 08:30:00,81.4,28.4
2023/07/26 08:40:00,81.9,28.1
2023/07/26 08:50:00,82.6,27.8
2023/07/26 09:00:00,83.4,27.1
2023/07/26 09:10:00,45.7,26.7
2023/07/26 09:20:00,42.5,27.1
2023/07/26 09:30:00,35.3,27.6
2023/07/26 09:40:00,81.7,28.2
2023/07/26 09:50:00,81.7,28.7
2023/07/26 10:00:00,81.9,29.3
2023/07/26 10:10:00,81.8,30.4
2023/07/26 10:20:00,81.5,30.5
2023/07/26 10:30:00,81.5,29.7
2023/07/26 10:40:00,50.3,29.8
2023/07/26 10:50:00,27.5,31.1
2023/07/26 11:00:00,27.5,30.8
2023/07/26 11:10:00,---,32.1
2023/07/26 11:20:00,53.5,32.1
2023/07/26 11:30:00,28.0,32.1
2023/07/26 11:40:00,27.3,31.9
2023/07/26 11:50:00,35.4,33.7
2023/07/26 12:00:00,62.7,32.6
2023/07/26 12:10:00,66.6,33.0
2023/07/26 12:20:00,83.4,32.2
2023/07/26 12:30:00,83.2,32.8
2023/07/26 12:40:00,83.4,33.6
2023/07/26 12:50:00,83.2,32.6
2023/07/26 13:00:00,82.5,34.5
2023/07/26 13:10:00,---,33.4
2023/07/26 13:20:00, 0.0,32.1
2023/07/26 13:30:00,80.6,31.9
2023/07/26 13:40:00,80.5,32.5
2023/07/26 13:50:00,80.1,31.2
2023/07/26 14:00:00,82.2,32.5
2023/07/26 14:10:00,81.9,32.6
2023/07/26 14:20:00,---,31.8
2023/07/26 14:30:00,81.5,31.2
2023/07/26 14:40:00,81.7,31.7
2023/07/26 14:50:00,81.1,31.3
2023/07/26 15:00:00,80.4,32.2
2023/07/26 15:10:00,81.0,32.2
2023/07/26 15:20:00,81.0,31.4
2023/07/26 15:30:00,80.5,31.3
2023/07/26 15:40:00,81.5,32.3
2023/07/26 15:50:00,---,32.1
2023/07/26 16:00:00,---,32.1
2023/07/26 16:10:00,81.5,32.9
2023/07/26 16:20:00,81.2,33.2
2023/07/26 16:30:00,80.3,32.5
2023/07/26 16:40:00,79.6,31.1
2023/07/26 16:50:00,79.5,29.7
2023/07/26 17:00:00,79.4,29.4
2023/07/26 17:10:00,79.5,29.0
2023/07/26 17:20:00,79.4,28.7
2023/07/26 17:30:00,79.4,28.5
2023/07/26 17:40:00,79.4,28.2
2023/07/26 17:50:00,79.8,28.2
2023/07/26 18:00:00,79.7,28.4
2023/07/26 18:10:00,79.6,28.2
2023/07/26 18:20:00,79.5,27.9
2023/07/26 18:30:00,79.6,27.6
2023/07/26 18:40:00,79.6,26.9
2023/07/26 18:50:00,79.5,26.8
2023/07/26 19:00:00,79.5,26.5
2023/07/26 19:10:00,79.4,25.9
2023/07/26 19:20:00,79.5,25.4
2023/07/26 19:30:00,79.4,25.2
2023/07/26 19:40:00,79.4,24.6
2023/07/26 19:50:00,79.5,24.6
2023/07/26 20:00:00,79.5,24.2
2023/07/26 20:10:00,79.5,24.2
2023/07/26 20:20:00,79.5,24.0
2023/07/26 20:30:00,79.5,23.7
2023/07/26 20:40:00,79.5,23.7
2023/07/26 20:50:00,79.5,23.5
2023/07/26 21:00:00,79.6,23.4
2023/07/26 21:10:00,79.7,23.3
2023/07/26 21:20:00,79.7,23.2
2023/07/26 21:30:00,79.7,23.1
2023/07/26 21:40:00,79.6,22.9
2023/07/26 21:50:00,79.6,22.9
2023/07/26 22:00:00,79.7,22.8
2023/07/26 22:10:00,79.7,22.8
2023/07/26 22:20:00,79.7,22.6
2023/07/26 22:30:00,79.8,22.9
2023/07/26 22:40:00,79.8,22.4
2023/07/26 22:50:00,79.7,22.4
2023/07/26 23:00:00,79.7,22.3
2023/07/26 23:10:00,79.7,22.2
2023/07/26 23:20:00,79.8,22.0
2023/07/26 23:30:00,79.8,22.1
2023/07/26 23:40:00,79.8,21.7
2023/07/26 23:50:00,79.8,21.7
